Waarnemingen

Advertentie
Mijn weer
Malung A, Zweden (2407): temperatuur & dauwpunt: 16.09.2018 23:00:00 - 22.09.2018 23:00:00 (CEST)Malung A, Zweden (2407): windsnelheid & windstoten: 16.09.2018 23:00:00 - 22.09.2018 23:00:00 (CEST)Malung A, Zweden (2407): windrichting: 16.09.2018 23:00:00 - 22.09.2018 23:00:00 (CEST)Malung A, Zweden (2407): luchtdruk: 16.09.2018 23:00:00 - 22.09.2018 23:00:00 (CEST)Malung A, Zweden (2407): zicht: 16.09.2018 23:00:00 - 22.09.2018 23:00:00 (CEST)Malung A, Zweden (2407): neerslag: 16.09.2018 23:00:00 - 22.09.2018 23:00:00 (CEST)
Datum & Tijd tt [°C] td [°C] ff [km/u] ff [kn] fx [km/u] fx [kn] dd ppp [hPa] vv [km] rr [mm]
22.09.2018 23:00:00 8,0 0,3 16 8 32 18 ZZW 993,2 50 0,0
22.09.2018 22:00:00 8,5 0,0 14 7 32 18 ZW 993,2 50 0,0
22.09.2018 21:00:00 9,2 0,4 16 9 29 15 ZW 992,7 50 0,0
22.09.2018 20:00:00 9,5 0,7 13 7 27 14 ZW 992,7 50 0,0
22.09.2018 19:00:00 9,8 -0,4 10 5 31 17 ZZW 992,6 50 0,0
22.09.2018 18:00:00 11,1 -1,3 10 5 42 23 ZW 992,3 50 0,0
22.09.2018 17:00:00 12,5 -0,1 19 10 48 26 ZW 991,8 50 0,0
22.09.2018 16:00:00 12,6 0,0 24 13 48 26 ZZW 991,7 50 0,0
22.09.2018 15:00:00 13,6 0,9 12 6 44 24 WZW 991,6 50 0,0
22.09.2018 14:00:00 13,2 0,6 17 9 41 22 ZW 991,0 50 0,0
22.09.2018 13:00:00 12,6 1,0 17 9 41 22 WZW 990,1 50 0,0
22.09.2018 12:00:00 10,8 2,1 9 5 40 22 ZW 990,0 50 0,0
22.09.2018 11:00:00 11,3 3,3 13 7 40 22 WZW 988,8 50 0,0
22.09.2018 10:00:00 9,1 2,9 11 6 42 23 WZW 987,8 50 0,0
22.09.2018 09:00:00 8,1 2,8 16 9 42 23 WZW 986,9 50 0,0
22.09.2018 08:00:00 7,5 3,4 17 9 39 21 ZW 985,7 50 0,0
22.09.2018 07:00:00 7,5 4,1 18 10 38 21 ZW 984,1 50 0,0
22.09.2018 06:00:00 7,9 4,8 17 9 37 20 ZW 982,3 49 0,0
22.09.2018 05:00:00 8,0 5,6 16 8 39 21 ZW 980,9 4,9 0,2
22.09.2018 04:00:00 8,6 5,7 19 10 45 24 ZZW 979,8 42 0,3
22.09.2018 03:00:00 8,5 6,6 23 12 48 26 Z 978,3 5 0,6
22.09.2018 02:00:00 8,2 6,3 19 10 54 29 ZZO 978,5 4,9 0,8
22.09.2018 01:00:00 8,4 6,0 32 17 54 29 ZZO 979,4 6 0,2
22.09.2018 00:00:00 8,3 5,9 27 15 48 26 ZZO 981,0 14 0,1
21.09.2018 23:00:00 9,6 4,8 21 11 48 26 Z 983,2 50 0,0
21.09.2018 22:00:00 9,9 4,5 22 12 51 27 Z 984,3 50 0,0
21.09.2018 21:00:00 10,3 4,9 22 12 51 27 Z 985,6 50 0,0
21.09.2018 20:00:00 11,0 5,9 22 12 49 27 Z 986,1 41 0,0
21.09.2018 19:00:00 11,9 6,6 22 12 55 30 ZZW 986,6 30 0,0
21.09.2018 18:00:00 14,6 11,6 27 15 55 30 Z 985,3 23 0,4
21.09.2018 17:00:00 14,9 12,4 23 12 41 22 ZZO 986,0 13 0,9
21.09.2018 16:00:00 16,1 12,1 21 11 42 23 ZZO 987,1 19 0,0
21.09.2018 15:00:00 16,1 12,1 24 13 42 23 ZZO 988,0 34 0,0
21.09.2018 14:00:00 15,6 12,4 22 12 39 21 ZZO 989,3 33 0,0
21.09.2018 13:00:00 14,2 12,1 18 10 29 16 ZZO 990,9 17 0,0
21.09.2018 12:00:00 9,5 7,9 4 2 7 4 NO 993,2 10 0,0
21.09.2018 11:00:00 8,0 5,6 2 1 15 8 N 995,1 5 0,3
21.09.2018 10:00:00 7,3 5,4 4 2 15 8 ONO 997,2 2,7 0,3
21.09.2018 09:00:00 7,1 4,9 5 3 13 7 OZO 998,5 3,3 1,6
21.09.2018 08:00:00 7,0 4,7 3 2 11 6 OZO 1000,1 14 1,2
21.09.2018 07:00:00 6,9 4,9 6 3 24 13 ZZO 1001,0 17 1,4
21.09.2018 06:00:00 7,0 5,0 11 6 32 18 Z 1001,8 15 1,0
21.09.2018 05:00:00 7,8 4,6 16 9 32 18 Z 1002,4 44 0,3
21.09.2018 04:00:00 9,2 4,8 9 5 27 14 Z 1002,7 25 0,0
21.09.2018 03:00:00 8,7 4,9 10 5 31 17 Z 1003,2 27 0,0
21.09.2018 02:00:00 9,1 4,7 15 8 34 18 ZZW 1003,3 25 0,0
21.09.2018 01:00:00 9,1 4,7 18 10 34 18 ZZW 1003,5 25 0,0
21.09.2018 00:00:00 8,6 5,2 17 9 29 16 ZZW 1003,7 22 0,0
20.09.2018 23:00:00 7,4 4,7 14 7 23 12 Z 1004,2 19 0,0
20.09.2018 22:00:00 3,3 0,9 3 2 16 9 ZO 1004,8 18 0,0
20.09.2018 21:00:00 3,0 0,4 2 1 22 12 NW 1004,6 1,9 0,0
20.09.2018 20:00:00 5,5 3,7 5 3 48 26 O 1003,8 50 0,1
20.09.2018 19:00:00 6,5 3,1 16 9 48 26 W 1003,7 4,5 1,5
20.09.2018 18:00:00 10,7 3,0 10 6 50 27 WZW 1001,8 50 0,2
20.09.2018 17:00:00 13,4 2,3 16 8 50 27 ZW 1001,2 43 0,0
20.09.2018 16:00:00 13,1 1,4 22 12 55 30 ZW 1000,9 50 0,0
20.09.2018 15:00:00 13,4 1,1 25 14 61 33 ZW 1001,0 50 0,0
20.09.2018 14:00:00 14,3 0,9 31 17 61 33 ZZW 1000,9 37 0,0
20.09.2018 13:00:00 14,2 1,8 21 11 67 36 ZW 1000,8 44 0,0
20.09.2018 12:00:00 13,3 2,8 22 12 67 36 ZZW 1000,8 31 0,0
20.09.2018 11:00:00 12,5 3,2 31 17 54 29 ZZW 1000,3 29 0,0
20.09.2018 10:00:00 11,6 3,6 27 15 54 29 ZZW 1000,1 36 0,0
20.09.2018 09:00:00 11,0 4,0 25 13 46 25 ZZW 999,7 31 0,0
20.09.2018 08:00:00 11,0 4,5 26 14 45 24 ZZW 999,0 32 0,0
20.09.2018 07:00:00 11,1 5,6 22 12 46 25 ZZW 998,4 22 0,0
20.09.2018 06:00:00 11,2 5,7 19 10 46 25 ZZW 998,4 19 0,0
20.09.2018 05:00:00 11,8 7,1 23 12 62 34 ZZW 997,4 16 0,0
20.09.2018 04:00:00 12,1 7,2 19 10 62 34 ZZW 997,4 20 0,0
20.09.2018 03:00:00 13,7 7,9 25 14 59 32 ZZW 996,6 42 0,1
20.09.2018 02:00:00 14,3 12,0 23 12 51 28 Z 996,5 7 0,6
20.09.2018 01:00:00 14,2 11,5 18 10 59 32 Z 997,7 9 0,2
20.09.2018 00:00:00 14,3 10,7 21 11 59 32 Z 998,7 45 0,0
19.09.2018 23:00:00 15,4 11,2 19 11 55 30 Z 999,8 50 0,0
19.09.2018 22:00:00 15,3 11,1 15 8 38 20 Z 1001,0 40 0,0
19.09.2018 21:00:00 15,0 11,0 18 10 34 19 Z 1001,9 13 0,0
19.09.2018 20:00:00 15,4 9,7 14 7 40 21 Z 1002,9 50 0,0
19.09.2018 19:00:00 15,9 8,9 18 10 42 23 Z 1003,9 50 0,0
19.09.2018 18:00:00 16,8 7,4 20 11 42 23 ZZW 1004,0 50 0,0
19.09.2018 17:00:00 18,3 8,0 19 10 43 23 ZZW 1003,9 44 0,0
19.09.2018 16:00:00 18,9 8,2 19 10 43 23 ZW 1003,2 42 0,0
19.09.2018 15:00:00 18,9 8,8 18 10 43 23 ZW 1003,7 48 0,0
19.09.2018 14:00:00 18,6 9,6 13 7 49 27 ZZW 1003,7 34 0,0
19.09.2018 13:00:00 18,0 9,6 19 10 49 27 ZZW 1003,4 41 0,0
19.09.2018 12:00:00 17,4 9,3 16 9 44 24 ZW 1002,9 46 0,0
19.09.2018 11:00:00 17,3 10,2 19 10 44 24 ZZW 1002,5 42 0,0
19.09.2018 10:00:00 16,1 11,1 14 7 34 18 ZZW 1002,4 43 0,0
19.09.2018 09:00:00 15,6 11,2 14 8 34 18 ZW 1002,2 41 0,0
19.09.2018 08:00:00 15,3 11,3 15 8 34 19 ZW 1001,7 49 0,0
19.09.2018 07:00:00 15,3 11,7 15 8 35 19 ZW 1001,0 41 0,0
19.09.2018 06:00:00 15,2 12,1 18 10 38 21 ZZW 1000,4 46 0,0
19.09.2018 05:00:00 15,4 12,5 16 9 38 21 ZW 1000,4 18 0,0
19.09.2018 04:00:00 15,5 12,8 20 11 37 20 ZZW 999,8 41 0,0
19.09.2018 03:00:00 15,1 13,0 16 9 29 16 ZZW 999,6 6 0,1
19.09.2018 02:00:00 14,7 12,0 13 7 29 16 Z 999,9 7 0,0
19.09.2018 01:00:00 14,9 10,7 16 8 29 16 Z 1000,4 30 0,0
19.09.2018 00:00:00 13,0 8,7 8 4 13 7 ZZO 1001,1 50 0,0
18.09.2018 23:00:00 11,2 7,3 5 3 14 7 Z 1002,1 47 0,0
18.09.2018 22:00:00 11,5 7,4 8 4 21 11 Z 1003,0 49 0,0
18.09.2018 21:00:00 13,7 8,7 8 4 22 12 Z 1003,3 50 0,0
18.09.2018 20:00:00 15,2 9,3 15 8 24 13 Z 1003,7 50 0,0
18.09.2018 19:00:00 16,8 9,5 14 7 41 22 Z 1003,5 50 0,0
18.09.2018 18:00:00 18,2 9,2 13 7 41 22 ZZW 1003,7 50 0,0
18.09.2018 17:00:00 18,5 10,8 20 11 42 23 ZZW 1004,0 43 0,0
18.09.2018 16:00:00 18,5 11,1 18 10 42 23 ZZW 1004,1 37 0,0
18.09.2018 15:00:00 17,1 11,4 16 8 41 22 ZZW 1004,8 40 0,0
18.09.2018 14:00:00 16,7 11,0 14 8 42 23 ZZW 1005,2 28 0,0
18.09.2018 13:00:00 15,7 11,5 16 9 42 23 ZZW 1005,7 35 0,0
18.09.2018 12:00:00 15,0 12,9 21 11 39 21 ZZW 1005,5 10 0,0
18.09.2018 11:00:00 14,0 12,2 16 9 34 19 Z 1005,5 3,5 0,0
18.09.2018 10:00:00 12,8 11,0 16 9 29 16 Z 1006,3 11 0,0
18.09.2018 09:00:00 11,6 9,7 9 5 17 9 Z 1007,0 6 0,1
18.09.2018 08:00:00 10,2 8,5 8 5 17 9 ZZO 1007,6 6 0,1
18.09.2018 07:00:00 9,8 8,1 8 4 25 14 ZZO 1008,2 4,1 0,2
18.09.2018 06:00:00 10,2 7,8 8 5 26 14 ZZO 1009,0 6 0,0
18.09.2018 05:00:00 10,7 7,9 15 8 26 14 ZZW 1009,1 30 0,0
18.09.2018 04:00:00 10,6 7,3 8 4 22 12 ZZW 1009,7 43 0,0
18.09.2018 03:00:00 10,4 7,5 13 7 22 12 Z 1009,6 49 0,0
18.09.2018 02:00:00 9,8 6,5 10 5 22 12 Z 1010,4 46 0,0
18.09.2018 01:00:00 10,0 6,2 11 6 22 12 ZZW 1010,9 50 0,0
18.09.2018 00:00:00 10,1 5,1 3 1 15 8 Z 1010,7 50 0,0
17.09.2018 23:00:00 9,9 4,5 8 4 16 9 Z 1010,9 50 0,0
17.09.2018 22:00:00 9,6 4,2 8 4 16 9 ZZW 1011,1 50 0,0
17.09.2018 21:00:00 7,9 3,7 5 3 12 6 ZO 1011,3 50 0,0
17.09.2018 20:00:00 8,0 3,1 4 2 15 8 ZO 1011,4 50 0,0
17.09.2018 19:00:00 10,4 3,2 6 4 21 12 ZZO 1010,6 50 0,0
17.09.2018 18:00:00 10,9 3,0 7 4 26 14 WZW 1010,3 50 0,0
17.09.2018 17:00:00 11,6 3,4 10 6 27 14 WZW 1010,2 50 0,0
17.09.2018 16:00:00 12,2 2,6 11 6 29 15 W 1009,8 50 0,0
17.09.2018 15:00:00 12,6 3,5 13 7 29 15 WZW 1009,3 50 0,0
17.09.2018 14:00:00 12,7 4,6 12 7 29 16 WZW 1008,3 50 0,0
17.09.2018 13:00:00 12,8 5,0 15 8 29 16 WNW 1007,6 50 0,0
17.09.2018 12:00:00 12,9 5,3 9 5 29 16 WNW 1006,9 50 0,0
17.09.2018 11:00:00 12,5 5,9 14 7 29 16 W 1006,1 50 0,0
17.09.2018 10:00:00 12,2 6,9 11 6 25 13 WNW 1005,3 50 0,0
17.09.2018 09:00:00 11,5 7,2 10 5 25 13 WZW 1004,9 50 0,0
17.09.2018 08:00:00 11,1 7,2 6 3 25 13 WZW 1004,3 50 0,0
17.09.2018 07:00:00 10,9 7,4 6 3 25 13 WZW 1003,9 50 0,0
17.09.2018 06:00:00 11,5 8,4 9 5 21 12 WZW 1003,4 50 0,0
17.09.2018 05:00:00 11,5 8,2 2 1 23 12 Z 1003,2 50 0,0
17.09.2018 04:00:00 11,8 8,8 5 3 28 15 W 1003,0 50 0,0
17.09.2018 03:00:00 11,8 9,4 8 4 28 15 ZW 1003,1 15 0,5
17.09.2018 02:00:00 11,4 9,3 12 7 23 12 ZZW 1003,5 10 0,3
17.09.2018 01:00:00 10,8 9,1 13 7 22 12 Z 1004,4 4,2 0,3
17.09.2018 00:00:00 10,2 8,5 12 7 19 10 Z 1005,4 3,9 0,3
16.09.2018 23:00:00 8,8 7,1 8 4 21 12 ZO 1006,9 4,2 0,7

tt = temperatuur
td = dauwpunt
ff = windsnelheid
fx = windstoten
dd = windrichting
ppp = luchtdruk
vv = zicht
rr = neerslag

Weerstations in de omgeving